| time (UTC) | temp F | wind direction | speed knots | gust knots | rain 1hr in | rain 24hr in | rain mn in | humidity % | barometer mb |
| 20260901113009 | 58 | 203 | 0.9 | 5.2 | 0.00 | 0.00 | 0.00 | 100 | 1013.2 |
| 20260901111507 | 58 | 207 | 0.9 | 3.5 | 0.00 | 0.00 | 0.00 | 99 | 1013.2 |
| 20260901110005 | 59 | 211 | 0.0 | 2.6 | 0.00 | 0.00 | 0.00 | 99 | 1013.1 |
| 20260901104504 | 59 | 211 | 0.9 | 3.5 | 0.00 | 0.00 | 0.00 | 99 | 1012.9 |
| 20260901103002 | 59 | 211 | 1.7 | 4.3 | 0.00 | 0.00 | 0.00 | 98 | 1012.9 |
| 20260901101502 | 59 | 219 | 0.9 | 3.5 | 0.00 | 0.00 | 0.00 | 97 | 1012.9 |
| 20260901100110 | 59 | 182 | 0.9 | 5.2 | 0.00 | 0.00 | 0.00 | 97 | 1012.9 |
| 20260901094603 | 59 | 178 | 0.9 | 5.2 | 0.00 | 0.00 | 0.00 | 96 | 1012.8 |
| 20260901093057 | 59 | 189 | 0.9 | 3.5 | 0.00 | 0.00 | 0.00 | 96 | 1012.8 |
| 20260901091557 | 59 | 185 | 0.9 | 6.1 | 0.00 | 0.00 | 0.00 | 96 | 1012.9 |
| 20260901084607 | 59 | 182 | 2.6 | 6.1 | 0.00 | 0.00 | 0.00 | 96 | 1013.0 |
| 20260901083052 | 60 | 190 | 1.7 | 7.8 | 0.00 | 0.00 | 0.00 | 96 | 1013.0 |
| 20260901081550 | 60 | 199 | 1.7 | 6.1 | 0.00 | 0.00 | 0.00 | 96 | 1013.0 |
| 20260901080051 | 60 | 210 | 3.5 | 7.8 | 0.00 | 0.00 | 0.00 | 96 | 1013.1 |
| 20260901074547 | 59 | 209 | 1.7 | 6.1 | 0.00 | 0.00 | 0.00 | 97 | 1013.0 |
| 20260901073045 | 60 | 209 | 2.6 | 5.2 | 0.00 | 0.00 | 0.00 | 97 | 1012.8 |
| 20260901071545 | 60 | 212 | 1.7 | 5.2 | 0.00 | 0.00 | 0.00 | 97 | 1012.7 |
| 20260901070042 | 60 | 206 | 0.9 | 3.5 | 0.00 | 0.00 | 0.00 | 97 | 1012.6 |
| 20260901064541 | 60 | 203 | 1.7 | 7.0 | 0.00 | 0.00 | 0.00 | 97 | 1012.8 |
| 20260901063040 | 60 | 203 | 0.9 | 3.5 | 0.00 | 0.00 | 0.00 | 98 | 1012.7 |
| 20260901061548 | 60 | 211 | 0.9 | 2.6 | 0.00 | 0.00 | 0.00 | 98 | 1012.8 |
| 20260901060046 | 60 | 203 | 1.7 | 6.1 | 0.00 | 0.00 | 0.00 | 98 | 1012.8 |
| 20260901054538 | 60 | 232 | 2.6 | 6.1 | 0.00 | 0.00 | 0.00 | 98 | 1012.7 |
| 20260901053047 | 60 | 212 | 2.6 | 6.1 | 0.00 | 0.00 | 0.00 | 98 | 1012.7 |
| 20260901051540 | 60 | 204 | 1.7 | 5.2 | 0.00 | 0.00 | 0.00 | 98 | 1012.6 |
| 20260901050040 | 60 | 208 | 0.9 | 6.1 | 0.00 | 0.00 | 0.00 | 98 | 1012.7 |
| 20260901044536 | 60 | 216 | 2.6 | 6.1 | 0.00 | 0.00 | 0.00 | 98 | 1012.8 |
| 20260901043036 | 60 | 201 | 0.9 | 3.5 | 0.00 | 0.00 | 0.00 | 98 | 1012.6 |
| 20260901041535 | 60 | 198 | 0.9 | 3.5 | 0.00 | 0.00 | 0.00 | 98 | 1012.5 |
| 20260901040037 | 60 | 210 | 0.0 | 2.6 | 0.00 | 0.00 | 0.00 | 97 | 1012.3 |
| 20260901034536 | 60 | 213 | 0.0 | 2.6 | 0.00 | 0.00 | 0.00 | 97 | 1012.1 |
| 20260901033034 | 60 | 204 | 0.9 | 3.5 | 0.00 | 0.00 | 0.00 | 97 | 1012.1 |
| 20260901031547 | 60 | 204 | 0.0 | 2.6 | 0.00 | 0.00 | 0.00 | 97 | 1011.9 |
| 20260901030033 | 61 | 215 | 0.0 | 0.9 | 0.00 | 0.00 | 0.00 | 96 | 1011.9 |
| 20260901024533 | 61 | 207 | 0.9 | 3.5 | 0.00 | 0.00 | 0.00 | 96 | 1012.0 |
| 20260901023037 | 61 | 213 | 1.7 | 7.0 | 0.00 | 0.00 | 0.00 | 95 | 1012.1 |
| 20260901021531 | 62 | 257 | 0.9 | 5.2 | 0.00 | 0.00 | 0.00 | 93 | 1012.1 |
| 20260901020031 | 63 | 211 | 2.6 | 6.1 | 0.00 | 0.00 | 0.00 | 92 | 1012.1 |
| 20260901014531 | 65 | 201 | 1.7 | 6.1 | 0.00 | 0.00 | 0.00 | 88 | 1012.0 |
| 20260901013032 | 68 | 201 | 1.7 | 7.8 | 0.00 | 0.00 | 0.00 | 82 | 1011.9 |
| 20260901011528 | 68 | 234 | 0.0 | 2.6 | 0.00 | 0.00 | 0.00 | 82 | 1011.8 |
| 20260901010035 | 69 | 280 | 1.7 | 7.0 | 0.00 | 0.00 | 0.00 | 81 | 1011.6 |
| 20260901004527 | 69 | 275 | 1.7 | 7.0 | 0.00 | 0.00 | 0.00 | 76 | 1011.5 |
| 20260901003025 | 69 | 298 | 2.6 | 7.0 | 0.00 | 0.00 | 0.00 | 76 | 1011.4 |
| 20260901001525 | 70 | 288 | 3.5 | 7.8 | 0.00 | 0.00 | 0.00 | 75 | 1011.3 |
| 20260901000022 | 72 | 302 | 3.5 | 6.1 | 0.00 | 0.00 | 0.00 | 75 | 1011.4 |
| 20260831234620 | 72 | 295 | 3.5 | 7.0 | 0.00 | 0.00 | 0.00 | 75 | 1011.1 |
| 20260831233018 | 72 | 309 | 2.6 | 7.0 | 0.00 | 0.00 | 0.00 | 74 | 1011.1 |
| 20260831231517 | 72 | 326 | 3.5 | 7.8 | 0.00 | 0.00 | 0.00 | 75 | 1011.3 |
| 20260831230016 | 72 | 326 | 5.2 | 8.7 | 0.00 | 0.00 | 0.00 | 74 | 1011.1 |
| 20260831224514 | 73 | 344 | 2.6 | 9.6 | 0.00 | 0.00 | 0.00 | 74 | 1011.1 |
| 20260831223018 | 74 | 330 | 4.3 | 7.0 | 0.00 | 0.00 | 0.00 | 71 | 1011.0 |
| 20260831221522 | 74 | 26 | 3.5 | 8.7 | 0.00 | 0.00 | 0.00 | 71 | 1010.9 |
| 20260831220010 | 75 | 311 | 6.1 | 8.7 | 0.00 | 0.00 | 0.00 | 69 | 1010.9 |
| 20260831214506 | 76 | 5 | 1.7 | 7.8 | 0.00 | 0.00 | 0.00 | 67 | 1011.1 |
| 20260831213003 | 76 | 16 | 1.7 | 4.3 | 0.00 | 0.00 | 0.00 | 64 | 1011.4 |
| 20260831211614 | 76 | 12 | 0.9 | 5.2 | 0.00 | 0.00 | 0.00 | 64 | 1011.4 |
| 20260831210057 | 74 | 359 | 2.6 | 7.0 | 0.00 | 0.00 | 0.00 | 67 | 1011.5 |
| 20260831204556 | 74 | 282 | 0.0 | 7.0 | 0.00 | 0.00 | 0.00 | 67 | 1011.5 |
| 20260831203052 | 74 | 333 | 0.0 | 7.8 | 0.00 | 0.00 | 0.00 | 66 | 1011.7 |
| 20260831201553 | 73 | 317 | 1.7 | 7.0 | 0.00 | 0.00 | 0.00 | 69 | 1012.0 |
| 20260831200045 | 72 | 316 | 2.6 | 8.7 | 0.00 | 0.00 | 0.00 | 71 | 1012.1 |
| 20260831194618 | 71 | 12 | 3.5 | 8.7 | 0.00 | 0.00 | 0.00 | 69 | 1012.2 |
| 20260831193042 | 71 | 347 | 1.7 | 8.7 | 0.00 | 0.00 | 0.00 | 70 | 1012.2 |
| 20260831191539 | 71 | 11 | 2.6 | 10.4 | 0.00 | 0.00 | 0.00 | 72 | 1012.5 |
| 20260831190040 | 70 | 7 | 2.6 | 6.1 | 0.00 | 0.00 | 0.00 | 73 | 1012.7 |
| 20260831184544 | 71 | 322 | 1.7 | 6.1 | 0.00 | 0.00 | 0.00 | 71 | 1012.9 |
| 20260831183034 | 70 | 19 | 0.0 | 0.9 | 0.00 | 0.00 | 0.00 | 72 | 1013.0 |
| 20260831181533 | 70 | 6 | 1.7 | 7.0 | 0.00 | 0.00 | 0.00 | 70 | 1013.2 |
| 20260831180029 | 69 | 46 | 0.0 | 7.0 | 0.00 | 0.00 | 0.00 | 73 | 1013.2 |
| 20260831174543 | 69 | 282 | 0.0 | 2.6 | 0.00 | 0.00 | 0.00 | 75 | 1013.2 |
| 20260831173023 | 68 | 355 | 0.0 | 2.6 | 0.00 | 0.00 | 0.00 | 78 | 1013.4 |
| 20260831171537 | 67 | 90 | 0.0 | 0.0 | 0.00 | 0.00 | 0.00 | 78 | 1013.5 |
| 20260831170045 | 66 | 95 | 0.0 | 0.0 | 0.00 | 0.00 | 0.00 | 84 | 1013.5 |
| 20260831164513 | 65 | 85 | 0.0 | 0.0 | 0.00 | 0.00 | 0.00 | 88 | 1013.6 |
| 20260831163010 | 63 | 46 | 0.0 | 1.7 | 0.00 | 0.00 | 0.00 | 92 | 1013.7 |
| 20260831161505 | 62 | 90 | 0.0 | 1.7 | 0.00 | 0.00 | 0.00 | 96 | 1013.9 |
| 20260831160001 | 59 | 52 | 0.0 | 0.0 | 0.00 | 0.00 | 0.00 | 99 | 1014.0 |
| 20260831154613 | 57 | 52 | 0.0 | 0.0 | 0.00 | 0.00 | 0.00 | 100 | 1014.1 |
| 20260831153152 | 55 | 52 | 0.0 | 0.0 | 0.00 | 0.00 | 0.00 | 100 | 1014.2 |
| 20260831151549 | 53 | 52 | 0.0 | 0.0 | 0.00 | 0.00 | 0.00 | 100 | 1014.3 |
| 20260831150048 | 51 | 52 | 0.0 | 0.0 | 0.00 | 0.00 | 0.00 | 100 | 1014.2 |
| 20260831144547 | 47 | 52 | 0.0 | 0.0 | 0.00 | 0.00 | 0.00 | 100 | 1014.3 |
| 20260831143046 | 46 | 52 | 0.0 | 0.0 | 0.00 | 0.00 | 0.00 | 100 | 1014.3 |
| 20260831141543 | 46 | 16 | 0.0 | 0.0 | 0.00 | 0.00 | 0.00 | 100 | 1014.4 |
| 20260831140043 | 46 | 13 | 0.0 | 0.0 | 0.00 | 0.00 | 0.00 | 100 | 1014.6 |
| 20260831134543 | 46 | 13 | 0.0 | 0.0 | 0.00 | 0.00 | 0.00 | 100 | 1014.7 |
| 20260831133041 | 46 | 13 | 0.0 | 0.0 | 0.00 | 0.00 | 0.00 | 100 | 1014.5 |
| 20260831131537 | 46 | 13 | 0.0 | 0.0 | 0.00 | 0.00 | 0.00 | 100 | 1014.7 |
| 20260831130035 | 46 | 13 | 0.0 | 0.0 | 0.00 | 0.00 | 0.00 | 100 | 1014.9 |
| 20260831124536 | 47 | 13 | 0.0 | 0.0 | 0.00 | 0.00 | 0.00 | 100 | 1014.9 |
| 20260831123031 | 46 | 13 | 0.0 | 0.0 | 0.00 | 0.00 | 0.00 | 100 | 1015.0 |
| 20260831121529 | 47 | 13 | 0.0 | 0.0 | 0.00 | 0.00 | 0.00 | 100 | 1015.2 |
| 20260831120031 | 47 | 13 | 0.0 | 0.0 | 0.00 | 0.00 | 0.00 | 100 | 1015.4 |
| 20260831114525 | 47 | 13 | 0.0 | 0.0 | 0.00 | 0.00 | 0.00 | 100 | 1015.5 |